Flag for Hungary Weather past 2 weeks in Budapest, Hungary

59 °F

Passing clouds.

Feels Like: 59 °F
Forecast: 50 / 66 °F
Wind: 5 mph from South

Location: Ferenc Liszt International Airport

Current Time: Oct 5, 2015 at 4:00:35 AM

Latest Report: Oct 5, 2015 at 3:30 AM

Visibility: N/A

Pressure: 30.01 "Hg

Humidity: 94%

Dew point: 57 °F

Location of BudapestLocation

Historic Weather in Budapest — Graph


Budapest temperature yesterday

Maximum temperature yesterday: 73 °F (at 1:30 PM)
Minimum temperature yesterday: 50 °F (at 7:00 AM)
Average temperature yesterday: 62 °F

Past Weeks' High & Low Weather Summary

High81 °F (Sep 24, 3:00 PM)100% (Sep 20, 6:30 AM)30.48 "Hg (Sep 20, 6:30 AM)
Low37 °F (Oct 2, 5:00 AM)38% (Sep 21, 3:30 PM)29.77 "Hg (Sep 23, 2:00 AM)
Average60 °F71%30.14 "Hg
* Reported Sep 20 3:00 AM — Oct 5 3:00 AM, Budapest, Weather by CustomWeather, © 2015

Note: Actual official high and low records may vary slightly from our data, if they occured in-between our weather recording intervals... More about our weather records


Budapest weather history for previous 24 hours

Time TempWeatherWind HumidityBarometerVisibility
3:00 AM
Mon, Oct 5
59 °FClear.7 mph94%30.01 "Hg10 mi
2:30 AM59 °FLight rain. Partly cloudy.5 mph88%30.01 "HgN/A
2:00 AM59 °FPartly cloudy.2 mph88%30.01 "HgN/A
1:30 AM59 °FClear.3 mph88%30.01 "Hg10 mi
1:00 AM57 °FClear.1 mph94%30.01 "Hg10 mi
12:30 AM57 °FClear.2 mph88%30.04 "Hg10 mi
12:00 AM59 °FClear.2 mph82%30.04 "Hg10 mi
11:30 PM
Sun, Oct 4
57 °FClear.3 mph88%30.04 "Hg10 mi
11:00 PM57 °FClear.1 mph88%30.04 "Hg10 mi
10:30 PM59 °FClear.2 mph82%30.04 "Hg10 mi
10:00 PM57 °FClear.3 mph82%30.04 "Hg10 mi
9:30 PM57 °FClear.3 mph88%30.04 "Hg10 mi
9:00 PM61 °FClear.1 mph77%30.04 "Hg10 mi
8:30 PM59 °FClear.3 mph82%30.04 "Hg10 mi
8:00 PM61 °FClear.6 mph77%30.04 "Hg10 mi
7:30 PM68 °FPassing clouds.5 mph64%30.04 "HgN/A
7:00 PM64 °FSunny.5 mph73%30.04 "Hg10 mi
6:30 PM68 °FSunny.3 mph64%30.04 "Hg10 mi
6:00 PM70 °FSunny.6 mph60%30.04 "Hg10 mi
5:30 PM70 °FSunny.7 mph53%30.04 "Hg10 mi
5:00 PM72 °FSunny.7 mph50%30.04 "Hg10 mi
4:30 PM72 °FSunny.7 mph50%30.04 "Hg10 mi
4:00 PM73 °FSunny.8 mph47%30.04 "Hg10 mi
3:30 PM73 °FPassing clouds.15 mph47%30.07 "HgN/A
3:00 PM73 °FSunny.13 mph47%30.07 "Hg10 mi
2:30 PM73 °FPassing clouds.14 mph44%30.07 "HgN/A
2:00 PM73 °FPassing clouds.15 mph44%30.07 "HgN/A
1:30 PM73 °FPassing clouds.13 mph44%30.09 "HgN/A
1:00 PM72 °FPassing clouds.14 mph50%30.09 "HgN/A
12:30 PM70 °FPassing clouds.14 mph57%30.09 "HgN/A
12:00 PM70 °FPassing clouds.14 mph60%30.12 "HgN/A
11:30 AM70 °FPassing clouds.13 mph60%30.12 "HgN/A
11:00 AM68 °FPassing clouds.12 mph64%30.12 "HgN/A
10:30 AM66 °FPassing clouds.8 mph73%30.12 "HgN/A
10:00 AM63 °FPassing clouds.8 mph83%30.12 "HgN/A
9:30 AM61 °FPassing clouds.6 mph88%30.15 "HgN/A
9:00 AM59 °FPassing clouds.6 mph88%30.15 "HgN/A
8:30 AM57 °FPassing clouds.6 mph94%30.15 "HgN/A
8:00 AM55 °FSunny.7 mph100%30.12 "Hg10 mi
7:30 AM52 °FClear.7 mph100%30.12 "Hg10 mi
7:00 AM50 °FClear.7 mph100%30.12 "Hg10 mi
5:30 AM54 °FClear.3 mph88%30.15 "Hg10 mi
5:00 AM54 °FClear.3 mph88%30.15 "Hg10 mi
4:30 AM54 °FPassing clouds.5 mph88%30.15 "HgN/A
4:00 AM52 °FClear.3 mph94%30.15 "Hg10 mi
Weather by CustomWeather, © 2015

See weather overviewHow to use our weather pages